"Pseudo-MPEC" for C1F5ND2

Created 2019 Nov 9 5:07:08 UT using Find_Orb

Click here for an explanation of pseudo-MPECs

 
 Astrometry: 
     C1F5ND2  C2019 08 05a\8c;*9W(xs!`LE(cAstrometry)XpcGrlNwhAs^]ituRiYlG;DtF51
     C1F5ND2  C2019 08 05=*FgcEEZbm,Uu)wqW5TF/)yxbEyredacted;#istst7:76`clickF51
     C1F5ND2  C2019 08 05qS-X.(a+y@hereSe)6[xforc[V,.P%\A@t2ZexplanationEeg#MF51
     C1F5ND2  C2019 11 05.49636 05 35 31.87 +19 19 52.9    ~B5Cb 20.9 GVNEOCPG96
     C1F5ND2  C2019 11 05.50144 05 35 31.54 +19 19 54.4    ~B5Cb 21.5 GVNEOCPG96
     C1F5ND2  C2019 11 05.50651 05 35 31.20 +19 19 56.3    ~B5Cb 21.0 GVNEOCPG96
     C1F5ND2  C2019 11 06.31194 05 34 42.13 +19 24 15.8    ~B6D7 20.7 GVNEOCPG96
     C1F5ND2  C2019 11 06.31452 05 34 42.00 +19 24 16.6    ~B6D7 20.9 GVNEOCPG96
     C1F5ND2  C2019 11 06.31708 05 34 41.85 +19 24 17.4    ~B6D7 20.8 GVNEOCPG96
     C1F5ND2  C2019 11 08.29287 05 32 32.18 +19 34 53.8    ~B87q 21.2 GVNEOCPG96
     C1F5ND2  C2019 11 08.30118 05 32 31.60 +19 34 56.8    ~B87q 22.0 GVNEOCPG96
     C1F5ND2  C2019 11 08.30490 05 32 31.31 +19 34 57.8    ~B87q       VNEOCPG96

Station data:
(F51) Pan-STARRS 1, Haleakala  (N20.707235 W156.255910)  US/Hawaii.
   Observers N. Primak, A. Schultz, S. Watters, J. Thiel, T. Goggia. Measurer
   PS1 Science Consortium. 1.8-m Ritchey-Chrétien + CCD.
(G96) Mt. Lemmon Survey  (N32.442754 W110.788720)  US/Arizona.  Observers T.
   A. Pruyne, B. M. Africano, E. J. Christensen, G. A. Farneth, D. C. Fuls,
   A. R. Gibbs, A. D. Grauer, H. Gröller, J. A. Johnson, R. A. Kowalski, S.
   M. Larson, G. J. Leonard, D. Rankin, R. L. Seaman, F. C. Shelly. 1.5-m
   reflector + 10K CCD.

Orbital elements:  C1F5ND2
   Perihelion 2019 Jul 5.821362 +/- 0.0311 TT = 19:42:45 (JD 2458670.321362)
Epoch 2019 Nov  8.0 TT = JDT 2458795.5   Earth MOID: 0.2155   Ma: 0.0099
M  34.91652892 +/- 0.052            (J2000 ecliptic)          AutoNEOCP
n   0.27893360 +/- 0.000355         Peri.  257.63737 +/- 0.013
a   2.31989763 +/- 0.00197          Node    76.32465 +/- 0.006
e   0.4937405 +/- 0.000432          Incl.    7.68902 +/- 0.0012
P   3.53                   H 19.5   G  0.15   U  7.4  
q 1.17447005 +/- 9.03e-5    Q 3.46532520 +/- 0.00395
From 12 observations 2019 Aug. 5-Nov. 8; mean residual 0".20
Residuals in arcseconds: 
190805 F51  .07+  .05-    191105 G96  .20+  .28-    191106 G96  .15+  .15+    
190805 F51  .02-  .05-    191105 G96  .02-  .03+    191108 G96  .04+  .11-    
190805 F51  .05-  .11+    191106 G96  .69-  .26+    191108 G96  .22+  .12+    
191105 G96  .27+  .19-    191106 G96  .12-  .20+    191108 G96  .12-  .12-    

Ephemerides (geocentric):
Date (UTC) HH   RA              Dec         delta   r     elong  mag " sig PA
---- -- -- --  -------------   -----------  ------ ------ -----  --- ---- ---
2019 11 09 05  05 31 28.084   +19 39 51.72  .84619 1.7415 142.8 21.3 .330 118
2019 11 09 06  05 31 25.133   +19 40 05.13  .84619 1.7417 142.9 21.3 .336 118
2019 11 09 07  05 31 22.178   +19 40 18.54  .84620 1.7420 142.9 21.3 .343 118
2019 11 09 08  05 31 19.219   +19 40 31.95  .84621 1.7423 143.0 21.3 .349 118
2019 11 09 09  05 31 16.254   +19 40 45.35  .84622 1.7425 143.0 21.3 .356 118
2019 11 09 10  05 31 13.286   +19 40 58.75  .84622 1.7428 143.1 21.3 .362 118
2019 11 09 11  05 31 10.313   +19 41 12.16  .84623 1.7431 143.1 21.3 .369 118
2019 11 09 12  05 31 07.335   +19 41 25.56  .84624 1.7433 143.2 21.3 .375 118
2019 11 09 13  05 31 04.353   +19 41 38.96  .84625 1.7436 143.2 21.3 .382 118
2019 11 09 14  05 31 01.367   +19 41 52.36  .84626 1.7439 143.3 21.3 .389 118
2019 11 09 15  05 30 58.376   +19 42 05.76  .84627 1.7441 143.3 21.3 .395 118
2019 11 09 16  05 30 55.381   +19 42 19.15  .84628 1.7444 143.4 21.3 .402 118
2019 11 09 17  05 30 52.381   +19 42 32.55  .84629 1.7447 143.4 21.3 .409 118
2019 11 09 18  05 30 49.377   +19 42 45.94  .84630 1.7449 143.5 21.3 .415 118
2019 11 09 19  05 30 46.368   +19 42 59.33  .84631 1.7452 143.5 21.3 .422 118
2019 11 09 20  05 30 43.355   +19 43 12.73  .84632 1.7455 143.6 21.3 .429 118
2019 11 09 21  05 30 40.338   +19 43 26.12  .84633 1.7457 143.7 21.3 .435 118
2019 11 09 22  05 30 37.316   +19 43 39.50  .84634 1.7460 143.7 21.3 .442 117
2019 11 09 23  05 30 34.290   +19 43 52.89  .84635 1.7463 143.8 21.3 .449 117
2019 11 10 00  05 30 31.260   +19 44 06.28  .84637 1.7466 143.8 21.3 .456 117
2019 11 10 01  05 30 28.225   +19 44 19.66  .84638 1.7468 143.9 21.3 .463 117
2019 11 10 02  05 30 25.185   +19 44 33.04  .84639 1.7471 143.9 21.3 .469 117
2019 11 10 03  05 30 22.142   +19 44 46.42  .84640 1.7474 144.0 21.3 .476 117
2019 11 10 04  05 30 19.094   +19 44 59.80  .84642 1.7476 144.0 21.3 .483 117
2019 11 10 05  05 30 16.042   +19 45 13.18  .84643 1.7479 144.1 21.3 .490 117
2019 11 10 06  05 30 12.985   +19 45 26.56  .84645 1.7482 144.1 21.3 .497 117
2019 11 10 07  05 30 09.924   +19 45 39.93  .84646 1.7484 144.2 21.3 .504 117
2019 11 10 08  05 30 06.859   +19 45 53.31  .84647 1.7487 144.2 21.3 .511 117
2019 11 10 09  05 30 03.789   +19 46 06.68  .84649 1.7490 144.3 21.3 .518 117
2019 11 10 10  05 30 00.715   +19 46 20.05  .84650 1.7492 144.4 21.3 .525 117
2019 11 10 11  05 29 57.637   +19 46 33.42  .84652 1.7495 144.4 21.3 .532 117
2019 11 10 12  05 29 54.554   +19 46 46.78  .84654 1.7498 144.5 21.3 .539 117
2019 11 10 13  05 29 51.467   +19 47 00.15  .84655 1.7500 144.5 21.3 .546 117
2019 11 10 14  05 29 48.376   +19 47 13.51  .84657 1.7503 144.6 21.3 .553 117
2019 11 10 15  05 29 45.281   +19 47 26.87  .84659 1.7506 144.6 21.3 .560 117
2019 11 10 16  05 29 42.181   +19 47 40.23  .84660 1.7508 144.7 21.3 .567 117
2019 11 10 17  05 29 39.077   +19 47 53.59  .84662 1.7511 144.7 21.3 .574 117
2019 11 10 18  05 29 35.969   +19 48 06.94  .84664 1.7514 144.8 21.3 .581 117
2019 11 10 19  05 29 32.857   +19 48 20.30  .84666 1.7516 144.8 21.3 .588 117
2019 11 10 20  05 29 29.740   +19 48 33.65  .84667 1.7519 144.9 21.3 .595 117
2019 11 10 21  05 29 26.619   +19 48 47.00  .84669 1.7522 144.9 21.3 .603 117
2019 11 10 22  05 29 23.494   +19 49 00.35  .84671 1.7524 145.0 21.3 .610 117
2019 11 10 23  05 29 20.365   +19 49 13.69  .84673 1.7527 145.1 21.3 .617 117
2019 11 11 00  05 29 17.231   +19 49 27.04  .84675 1.7530 145.1 21.3 .624 117
2019 11 11 01  05 29 14.093   +19 49 40.38  .84677 1.7532 145.2 21.3 .631 116
2019 11 11 02  05 29 10.951   +19 49 53.72  .84679 1.7535 145.2 21.3 .639 116
2019 11 11 03  05 29 07.805   +19 50 07.06  .84681 1.7538 145.3 21.3 .646 116
2019 11 11 04  05 29 04.655   +19 50 20.39  .84683 1.7540 145.3 21.3 .653 116